Terug naar catalogus

STARLINK-36839

ActiefCommunicatieSSO
NORAD 68125·PAYLOAD·🇺🇸 United States

Gelanceerd Mar 8, 2026 vanaf Vandenberg Space Force Base

Loading…

Volgende Passages (komende 24 uur)

TLE

VersSource: CelesTrak SupGP

Epoch: Sep 15, 2026, 03:49 UTC

1 68125C 26044AA  26258.15951389  .00033235  00000+0  10321-2 0  2584
2 68125  97.2853 217.2465 0002016  95.1112 252.8672 15.33409341    19

Volg STARLINK-36839 in realtime met AllMySat

Download on the App Store